Volver al catálogo

STARLINK-1012

ActivoComunicacionesVLEO
NORAD 44718·PAYLOAD·🇺🇸 United States

Lanzado Nov 11, 2019 desde Cape Canaveral Space Force Station

Loading…

Próximos Pases (próximas 24 horas)

TLE

ActualizadoSource: CelesTrak SupGP

Época: Sep 14, 2026, 20:44 UTC

1 44718C 19074F   26257.86437500  .00006885  00000+0  68778-4 0  2573
2 44718  53.1503 354.8190 0003923 340.4545 272.5624 15.64951978    19

Sigue STARLINK-1012 en tiempo real con AllMySat

Download on the App Store